www.pogodaiklimat.ru
ПОГОДА в Седалии
Время
и дата
23:53 04.02
00:53 05.02
01:53 05.02
02:53 05.02
03:53 05.02
04:53 05.02
05:53 05.02
06:53 05.02
07:53 05.02
08:53 05.02
09:53 05.02
10:53 05.02
11:53 05.02
12:53 05.02
13:53 05.02
14:53 05.02
15:53 05.02
16:53 05.02
17:53 05.02
18:53 05.02
19:53 05.02
20:53 05.02
21:53 05.02
22:53 05.02
23:53 05.02
00:53 06.02
01:53 06.02
02:53 06.02
03:53 06.02
04:53 06.02
05:53 06.02
06:53 06.02
07:53 06.02
08:53 06.02
09:53 06.02
10:53 06.02
11:53 06.02
12:53 06.02
13:53 06.02
14:53 06.02
15:53 06.02
16:53 06.02
17:53 06.02
18:53 06.02
19:53 06.02
20:53 06.02
21:53 06.02
22:53 06.02
Ветер
(напр.,м/с)
Видим. Явления Облачность Т
(С)
Тd
(С)
f
(%)
Тe
(С)
Тes
(С)
Комфортность P
(гПа)
Po
(гПа)
Тmin
(С)
Tmax
(С)
R
(мм)
R24
(мм)
S
(см)
ЮЗ 7 16 км ясно +7.8 +0.6 60 +4 +4 1015.5 982.2 +6.1 +9.4
ЮЗ 8
{12}
16 км ясно +7.2 +1.7 68 +2 +2 1015.4 982.2
ЮЗ 6
{10}
16 км ясно +6.1 +1.7 73 +2 +2 1015.5 982.2
ЮЗ 4 16 км ясно +5.0 +1.1 76 +1 +1 1015.9 982.5
З 4 16 км ясно +4.4 +0.6 76 0 0 1016.4 983.2
З 4 16 км ясно +2.8 -1.1 75 -2 -2 1017.4 984.2
З 3 16 км ясно +1.7 -1.7 78 -2 -2 1017.9 984.5 +1.7 +7.8
ЮЗ 3 16 км ясно +0.6 -2.2 81 -4 -4 1018.7 985.2
ЮЗ 3 16 км ясно +0.6 -2.8 78 -4 -4 1019.4 985.8
ЮЗ 2 16 км ясно +2.8 -1.7 72 0 +1 1020.2 986.5
ЮЗ 4 16 км ясно +5.6 -0.6 64 +2 +4 1020.3 986.8
ЮЗ 5 16 км ясно +7.8 0.0 58 +4 +7 1020.6 987.1
ЮЗ 4 16 км ясно +11.1 0.0 46 +9 +14 1020.2 986.8 +11.1
З 4
{8}
16 км ясно +13.3 0.0 40 +12 +17 1019.5 986.1
З 4
{9}
16 км ясно +14.4 -1.1 34 +13 +18 1019.2 985.8
З 5 16 км ясно +15.6 -1.1 32 +15 +18 1019.1 985.8
З 4 16 км ясно +15.0 -1.7 32 +14 +16 1019.4 986.1
ЮЗ 3 16 км ясно +12.8 -1.7 37 +12 +13 1019.6 986.1
Ю 2 16 км ясно +11.7 -1.7 39 +11 +11 1020.1 986.5 +11.1 +15.6
Ю 2 16 км ясно +11.1 -1.7 41 +10 +10 1020.3 986.8
Ю 3 16 км ясно +8.9 -1.7 47 +7 +7 1020.4 986.8
Ю 3 16 км ясно +7.2 -1.7 53 +5 +5 1020.6 986.8
Ю 3 16 км ясно +5.0 -2.2 60 +2 +2 1020.4 986.8
ЮВ 2 16 км ясно +5.0 -2.2 60 +3 +3 1020.1 986.5
Ю 2 16 км ясно +4.4 -2.8 59 +2 +2 1019.9 986.5 +3.3 +11.7
Ю 4 16 км ясно +4.4 -2.8 59 +1 +1 1019.7 986.5
ЮВ 2 16 км ясно +4.4 -3.3 57 +2 +2 1019.3 986.1
ЮВ 2 16 км ясно +2.8 -3.3 64 0 0 1019.0 985.8
ЮВ 4 16 км ясно +2.2 -3.3 67 -2 -2 1018.4 985.2
ЮВ 4 16 км ясно +2.8 -2.8 67 -2 -2 1018.2 984.8
ЮВ 5 16 км ясно +3.3 -2.8 64 -2 -2 1017.6 984.2 +1.1 +4.4
ЮВ 5 16 км ясно +3.3 -2.2 67 -2 -2 1016.8 983.5
ЮВ 6 16 км ясно +5.0 -1.1 65 0 0 1016.5 983.2
ЮВ 7 16 км ясно +7.8 +1.1 63 +4 +4 1015.3 981.9
ЮВ 7 16 км ясно +12.2 +3.9 57 +10 +10 1014.4 981.2
Ю 9
{15}
16 км ясно +14.4 +7.2 62 +12 +13 1013.2 980.2
Ю 9
{15}
16 км ясно +17.2 +7.8 54 +16 +17 1011.2 978.3 +3.3 +17.2
Ю 10
{20}
16 км ясно +18.9 +8.9 52 +18 +19 1009.4 976.6
Ю 13
{19}
16 км ясно +18.9 +7.8 48 +18 +18 1007.8 975.0
Ю 11
{21}
16 км ясно +18.9 +7.8 48 +18 +18 1006.8 974.0
Ю 11
{15}
16 км ясно +19.4 +8.3 49 +19 +19 1007.1 974.3
Ю 10
{16}
16 км 2/2 1650 м +18.3 +8.9 54 +17 +17 1006.9 974.0
Ю 10
{15}
16 км 10/10 1800 м +18.3 +8.3 52 +17 +17 1007.5 974.7 +17.2 +19.4
Ю 9
{15}
16 км 2/2 1500 m
[Ac]
+17.8 +8.3 54 +17 +17 1008.2 975.3
ЮЗ 8
{12}
16 км 10/10 1350 м +16.7 +9.4 62 +15 +15 1009.6 976.6
ЮЗ 8
{12}
16 км 10/8 1650 m
[Ac]
+16.7 +9.4 62 +15 +15 1010.0 977.3
ЮЗ 7
{13}
16 км 8/8 1290 м +16.1 +10.0 67 +15 +15 1010.5 977.9
ЮЗ 7
{12}
16 км 8/8 1020 м +15.6 +10.0 69 +14 +14 1011.2 978.6
Местоположение метеостанции Sedalia Memorial Airport: широта 38.7122 долгота -93.1744 высота над уровнем моря 277 м.
В архиве по умолчанию представлена погода в Седалии за последние 1-2 суток. Обновление информации о фактической погоде в базе происходит ежечасно! Архивные данные за месяц целиком и за предыдущие месяцы Вы можете получить, выбрав интересующий диапазон дат из раскрывающегося списка и нажав кнопку "Ввод!".
Внимание! Архив погоды МЕТАР в базе сайта по станциям, не включенным в климатический монитор, хранится не более 60 дней. Нет смысла пытаться выбрать более раннюю дату.
*Определитесь, кто Вы:
Внимание! Время в таблицах - местное (без учета летнего времени). Для получения всемирного времени необходимо вычесть поправку, которая равна -6 ч.
Смотрите также архив погоды в соседних городах и на ближайших метеорологических станциях:
Партнеры нашего сайта:      
Пояснения к столбцам:
  • Ветер - указаны скорость ветра в м/с - средняя за 10 мин, порывы в срок и между сроками (в фигурных скобках) и направление, откуда дует ветер: С - северный,
  • СВ - северо-восточный, В - восточный, ЮВ - юго-восточный, Ю - южный, ЮЗ - юго-западный, З - западный, СЗ - северо-западный.
  • Видимость - горизонтальная дальность видимости в метрах или километрах. При видимости от 1 до 10 км при отсутствии осадков обычно наблюдается дымка, при ухудшении видимости до 1 км и менее - туман. В сухую погоду видимость может ухудшаться дымом, пылью или мглою.
  • Явления - указаны атмосферные явления, наблюдавшиеся в срок или в последний час перед сроком; фигурными скобками обозначены явления, наблюдавшиеся между сроками (за 1-3 часа до срока); квадратными скобками обозначены град или гололедные отложения с указанием их диаметра в мм.
  • Облачность - указаны через наклонную черту общая и нижняя облачность в баллах и высота нижней границы облаков в метрах; квадратными скобками обозначены формы облаков: Ci - перистые, Cs - перисто-слоистые, Cc - перисто-кучевые, Ac - высококучевые, As - высокослоистые, Sc - слоисто-кучевые, Ns - слоисто-дождевые, Cu - кучевые, Cb - кучево-дождевые. Подробнее классификацию облаков см. в Атласе облаков (PDF).
  • T - Температура воздуха - температура, измеренная на высоте 2 м над землей.
  • Td - Температура точки росы - температура, при понижении до которой содержащийся в воздухе водяной пар достигнет насыщения.
  • f - Относительная влажность воздуха - влажноcть воздуха, измеренная на высоте 2 м над землей.
  • Te - Эффективная температура - температура, которую ощущает одетый по сезону человек в тени. Характеристика душности погоды. При расчете учитывается влияние влажности воздуха и скорости ветра на теплоощущения человека.
  • Tes - Эффективная температура на солнце - температура, которую ощущает человек, с поправкой на солнечный нагрев. Характеристика знойности погоды. Зависит от высоты солнца над горизонтом, облачности и скорости ветра. Ночью, в пасмурную погоду, а также при ветре 12 м/с и более поправка равна нулю.
  • P - Атмосферное давление - приведенное к уровню моря атмосферное давление.
  • Po - Атмосферное давление - измеренное на уровне метеостанции атмосферное давление.
  • Tmin - Минимальная температура - минимум температуры воздуха на высоте 2 м над землей.
  • Tmax - Максимальная температура - максимум температуры воздуха на высоте 2 м над землей.
  • R - Количество осадков - Количество выпавших осадков за период времени, мм. При наведении курсора мыши на число - период времени, за который выпало указанное количество осадков.
  • R24 - Количество осадков - Количество выпавших осадков за 24 часа, мм.
  • S - Снежный покров - Высота снежного покрова, см. При наведении курсора мыши на число - состояние снежного покрова и степень покрытия местности в баллах.